[[{"header":{"parameterUnit":"m.s-1","parameterCategory":1,"la1":30.2991,"la2":30.254,"lo1":-89.0895,"lo2":-89.0444,"dx":0.0017,"dy":0.0017,"nx":28,"ny":28,"refTime":"2023-01-07T03:00:00:Z","depth":0,"parameterNumber":2,"parameterNumberName":"U-component_of_WINDS"},"data":[0,0,0,0,0,0,0,0,0,0,0,0,0,0,0,0,0,0,0,0,0,0,0,0,0,0,0,0,0,0,0,0,0,0,0,0,0,0,0,0,0,0,0,0,0,0,0,0,0,0,0,0,0,0,0,0,0,0,-1.5057,-1.5056,0,-1.4897,-1.4895,-1.4893,-1.4816,-1.4816,-1.4816,-1.4816,-1.4645,-1.464,-1.4635,0,0,0,0,0,0,0,0,0,0,0,0,0,-1.529,-1.5286,-1.5058,-1.5055,-1.5054,-1.4897,-1.4895,-1.4893,-1.4816,-1.4816,-1.4816,-1.4816,-1.4646,-1.4641,-1.4635,0,0,0,0,0,0,0,0,0,0,0,0,0,-1.5165,-1.5285,-1.5058,-1.4997,-1.499,-1.4898,-1.4895,-1.4892,-1.4816,-1.4816,-1.4816,-1.4817,-1.4648,-1.4641,-1.4634,-1.4589,0,0,-1.4613,-1.461,0,0,0,0,0,0,0,0,-1.5172,-1.5157,-1.5008,-1.5001,-1.4993,-1.4877,-1.4914,-1.479,-1.4816,-1.4882,-1.4816,-1.4817,-1.4721,-1.4708,-1.4678,-1.4581,-1.4573,-1.4612,-1.4608,-1.4605,-1.4603,0,0,0,0,0,0,0,-1.5181,-1.5163,-1.4994,-1.5006,-1.4996,-1.4975,-1.4957,-1.489,-1.4802,-1.4876,-1.487,-1.4853,-1.4717,-1.4685,-1.4673,-1.4571,-1.4612,-1.4606,-1.4602,-1.4599,-1.4426,-1.4426,0,0,0,0,0,0,-1.5201,-1.5171,-1.4999,-1.4989,-1.5085,-1.497,-1.4951,-1.4914,-1.4803,-1.4787,-1.4853,-1.485,-1.4696,-1.4681,-1.4667,-1.4605,-1.4605,-1.4599,-1.4595,-1.4426,-1.4426,-1.4425,0,0,0,0,0,0,-1.5206,-1.5186,-1.5005,-1.5078,-1.5054,-1.4966,-1.4925,-1.491,-1.4878,-1.4786,-1.4769,-1.4836,-1.4696,-1.4676,-1.4609,-1.4598,-1.4595,-1.4589,-1.4427,-1.4426,-1.4426,-1.4482,0,0,0,0,0,0,-1.5213,-1.5189,-1.5172,-1.5079,-1.505,-1.4953,-1.4925,-1.4907,-1.4867,-1.4862,-1.4765,-1.475,-1.4694,-1.462,-1.4602,-1.4588,-1.4584,-1.4427,-1.4427,-1.4426,-1.4481,-1.4484,-1.4486,0,0,0,0,0,-1.5222,-1.5193,-1.5172,-1.5152,-1.5028,-1.4952,-1.4936,-1.4875,-1.4867,-1.4848,-1.4788,-1.4753,-1.4602,-1.4613,-1.4593,-1.4577,-1.4428,-1.4427,-1.4426,-1.448,-1.4483,-1.4486,0,0,0,0,0,0,-1.5286,-1.518,-1.5155,-1.5096,-1.5034,-1.494,-1.4915,-1.4881,-1.4818,-1.4815,-1.474,-1.4719,-1.4658,-1.461,-1.4625,-1.4526,-1.4511,-1.4506,-1.4559,-1.4562,-1.4564,-1.4577,-1.4578,0,0,0,0,0,-1.5294,-1.5243,-1.5152,-1.5109,-1.5079,-1.5003,-1.4967,-1.4926,-1.4858,-1.483,-1.4766,-1.4699,-1.4636,-1.4596,-1.4533,-1.4474,-1.445,-1.4452,-1.4455,-1.4458,-1.4454,-1.4417,-1.4416,-1.4422,-1.4422,-1.4422,0,0,-1.5308,-1.5244,-1.5217,-1.512,-1.5067,-1.5014,-1.4981,-1.4927,-1.4886,-1.4821,-1.4754,-1.4704,-1.4624,-1.456,-1.4528,-1.4518,-1.4447,-1.4456,-1.4459,-1.4454,-1.4416,-1.4415,-1.4415,-1.4422,-1.4422,-1.4422,0,0,-1.5308,-1.5255,-1.5213,-1.5161,-1.5082,-1.5031,-1.5021,-1.4931,-1.4896,-1.4828,-1.4778,-1.4727,-1.4621,-1.4566,-1.4524,-1.4502,-1.4466,-1.4483,-1.4496,-1.4461,-1.446,-1.446,-1.445,-1.4448,-1.448,-1.448,-1.448,0,-1.5335,-1.5256,-1.5195,-1.5143,-1.5102,-1.5043,-1.4998,-1.4949,-1.4853,-1.4824,-1.4815,-1.4681,-1.4623,-1.4544,-1.4539,-1.4507,-1.4491,-1.4494,-1.4466,-1.4465,-1.4463,-1.4453,-1.445,-1.4483,-1.4482,-1.4482,-1.4482,0,-1.5293,-1.5239,-1.5214,-1.5125,-1.508,-1.5032,-1.4961,-1.4922,-1.4885,-1.4834,-1.4764,-1.4692,-1.4613,-1.4592,-1.4553,-1.4507,-1.4503,-1.4481,-1.4465,-1.4466,-1.4455,-1.4451,-1.4486,-1.4485,-1.4485,-1.4484,0,0,-1.5329,-1.5207,-1.5199,-1.5157,-1.5066,-1.5021,-1.4969,-1.4895,-1.4862,-1.4797,-1.475,-1.4662,-1.4641,-1.4593,-1.4548,-1.4517,-1.4503,-1.4498,-1.4495,-1.4501,-1.4445,-1.4462,-1.4459,-1.4478,-1.4477,-1.4477,-1.4451,0,-1.5316,-1.5224,-1.5166,-1.5095,-1.5043,-1.4986,-1.4941,-1.4878,-1.4829,-1.4775,-1.4719,-1.4657,-1.4635,-1.4606,-1.4573,-1.4512,-1.449,-1.4513,-1.4431,-1.4429,-1.4453,-1.4453,-1.4471,-1.4451,-1.4447,-1.4446,-1.4445,0,-1.5288,-1.5227,-1.5152,-1.5065,-1.5041,-1.5002,-1.4928,-1.4878,-1.4805,-1.4771,-1.4718,-1.4672,-1.4612,-1.4601,-1.4516,-1.4533,-1.4496,-1.446,-1.4458,-1.4447,-1.4437,-1.4442,-1.4443,-1.444,-1.4439,-1.4439,-1.444,0,-1.5321,-1.5219,-1.5161,-1.5127,-1.5025,-1.4998,-1.4954,-1.4881,-1.4839,-1.4774,-1.4745,-1.4673,-1.4633,-1.4576,-1.4511,-1.451,-1.4432,-1.4416,-1.44,-1.4402,-1.4386,-1.4388,-1.438,-1.4363,-1.4363,-1.4364,-1.4364,0,-1.5311,-1.5267,-1.5175,-1.5139,-1.5087,-1.502,-1.497,-1.492,-1.4855,-1.4807,-1.4752,-1.4707,-1.4624,-1.4568,-1.4516,-1.4453,-1.4435,-1.4404,-1.439,-1.4408,-1.4412,-1.4383,-1.4382,-1.4363,-1.4363,-1.4363,-1.4363,0,-1.5339,-1.5276,-1.5209,-1.5117,-1.5093,-1.5059,-1.4979,-1.4941,-1.4889,-1.4828,-1.4809,-1.4726,-1.4657,-1.4587,-1.4493,-1.4458,-1.4395,-1.4378,-1.4421,-1.4414,-1.4401,-1.4403,-1.4374,-1.4366,-1.4356,-1.4356,-1.4357,0,-1.5338,-1.5303,-1.5208,-1.5173,-1.5131,-1.5075,-1.5032,-1.4964,-1.4922,-1.4835,-1.4806,-1.4734,-1.4672,-1.4564,-1.4493,-1.442,-1.44,-1.4394,-1.4388,-1.4407,-1.4398,-1.4401,-1.4396,-1.4397,-1.4397,-1.4398,-1.4398,0,-1.5341,-1.5311,-1.5254,-1.5185,-1.5137,-1.5078,-1.5018,-1.4991,-1.4911,-1.4865,-1.4796,-1.4748,-1.4653,-1.458,-1.4499,-1.445,-1.4409,-1.4401,-1.4393,-1.4411,-1.4437,-1.4421,-1.4427,-1.4401,-1.4401,-1.4401,-1.4401,-1.44,-1.5353,-1.5319,-1.5247,-1.5185,-1.5133,-1.5077,-1.5037,-1.498,-1.4921,-1.484,-1.4803,-1.4732,-1.4656,-1.4544,-1.4495,-1.4437,-1.4426,-1.4415,-1.4412,-1.441,-1.4414,-1.4447,-1.4422,-1.4421,-1.4421,-1.4421,-1.4421,0,-1.5352,-1.5304,-1.5247,-1.5165,-1.5115,-1.5085,-1.5016,-1.4975,-1.4915,-1.4849,-1.479,-1.4709,-1.4638,-1.4562,-1.4486,-1.4454,-1.4433,-1.4436,-1.4437,-1.4426,-1.4429,-1.4443,-1.4454,-1.4454,-1.4454,-1.4454,-1.4454,-1.4454,-1.5346,-1.5287,-1.5249,-1.5162,-1.5112,-1.5045,-1.5008,-1.4956,-1.4903,-1.4816,-1.4758,-1.471,-1.4639,-1.4557,-1.449,-1.4469,-1.4443,-1.4451,-1.4424,-1.4428,-1.4426,-1.4424,-1.4436,-1.4446,-1.4446,-1.4426,-1.4426,-1.4426]},{"header":{"parameterUnit":"m.s-1","parameterCategory":1,"la1":30.2991,"la2":30.254,"lo1":-89.0895,"lo2":-89.0444,"dx":0.0017,"dy":0.0017,"nx":28,"ny":28,"refTime":"2023-01-07T03:00:00:Z","depth":0,"parameterNumber":3,"parameterNumberName":"V-component_of_WINDS"},"data":[0,0,0,0,0,0,0,0,0,0,0,0,0,0,0,0,0,0,0,0,0,0,0,0,0,0,0,0,0,0,0,0,0,0,0,0,0,0,0,0,0,0,0,0,0,0,0,0,0,0,0,0,0,0,0,0,0,0,0.7989,0.7988,0,0.7882,0.7881,0.788,0.7894,0.7895,0.7897,0.7899,0.7783,0.7778,0.7774,0,0,0,0,0,0,0,0,0,0,0,0,0,0.8198,0.8194,0.7989,0.7988,0.7987,0.7883,0.7881,0.788,0.7893,0.7895,0.7897,0.79,0.7784,0.7779,0.7773,0,0,0,0,0,0,0,0,0,0,0,0,0,0.8101,0.8193,0.799,0.7981,0.7979,0.7883,0.7881,0.7879,0.7893,0.7895,0.7898,0.7901,0.7786,0.7779,0.7772,0.7676,0,0,0.7751,0.7748,0,0,0,0,0,0,0,0,0.8106,0.8093,0.7984,0.7981,0.7979,0.7904,0.7912,0.7811,0.7892,0.7925,0.7899,0.7902,0.7821,0.7811,0.7785,0.767,0.7665,0.775,0.7746,0.7743,0.7741,0,0,0,0,0,0,0,0.8113,0.8098,0.7947,0.7982,0.7979,0.798,0.7969,0.7893,0.7859,0.7923,0.7923,0.7911,0.782,0.7792,0.7782,0.7664,0.775,0.7744,0.774,0.7737,0.7462,0.7459,0,0,0,0,0,0,0.8123,0.8103,0.795,0.7944,0.8051,0.7974,0.7962,0.7925,0.786,0.7853,0.7909,0.7912,0.7802,0.779,0.7778,0.7659,0.7743,0.7736,0.7732,0.7465,0.7461,0.7458,0,0,0,0,0,0,0.8127,0.8109,0.7955,0.8024,0.8004,0.7968,0.7927,0.7922,0.7894,0.785,0.7843,0.7887,0.7804,0.7788,0.7701,0.7655,0.7733,0.7726,0.7468,0.7464,0.7459,0.7421,0,0,0,0,0,0,0.8133,0.8111,0.8075,0.8023,0.8,0.7881,0.7924,0.7918,0.7882,0.7885,0.7827,0.782,0.7805,0.7711,0.7694,0.7647,0.7721,0.7472,0.7466,0.7461,0.7426,0.7415,0.7406,0,0,0,0,0,0.8141,0.8068,0.8074,0.8055,0.7956,0.7879,0.7865,0.7851,0.7879,0.7841,0.7813,0.7822,0.7664,0.7702,0.7683,0.7633,0.7475,0.7468,0.7461,0.743,0.7417,0.7407,0,0,0,0,0,0,0.8114,0.8061,0.8067,0.7975,0.7931,0.7881,0.7834,0.7839,0.7785,0.779,0.7773,0.7759,0.7671,0.7643,0.7688,0.7535,0.7573,0.7561,0.7556,0.7543,0.7534,0.7541,0.7715,0,0,0,0,0,0.8098,0.8042,0.7998,0.7921,0.7899,0.787,0.7836,0.7829,0.7782,0.7763,0.7729,0.7681,0.762,0.758,0.7522,0.7423,0.7408,0.7378,0.7369,0.7361,0.735,0.7293,0.7278,0.7435,0.7435,0.7435,0,0,0.8063,0.8027,0.7992,0.7914,0.788,0.782,0.7854,0.779,0.7744,0.7753,0.7668,0.7641,0.7587,0.7492,0.7449,0.7466,0.7304,0.7352,0.7346,0.734,0.7284,0.727,0.7256,0.743,0.7431,0.7432,0,0,0.7968,0.7937,0.7868,0.7833,0.7781,0.7762,0.7746,0.7695,0.7677,0.7593,0.7598,0.7542,0.7439,0.7399,0.7365,0.7255,0.726,0.7236,0.7184,0.7129,0.7116,0.7105,0.7063,0.7049,0.7227,0.7227,0.7227,0,0.7931,0.7843,0.7832,0.7766,0.7731,0.7738,0.7667,0.7633,0.7563,0.7537,0.7559,0.7428,0.7392,0.7288,0.7261,0.7234,0.7212,0.7242,0.7119,0.7108,0.7098,0.7057,0.7042,0.7224,0.7224,0.7225,0.7225,0,0.7798,0.7736,0.7687,0.7622,0.7581,0.7513,0.7489,0.7449,0.7445,0.7423,0.7336,0.7293,0.7225,0.72,0.7196,0.7094,0.7106,0.7124,0.7161,0.708,0.7042,0.7026,0.722,0.7221,0.7222,0.7223,0,0,0.7683,0.7612,0.7594,0.7564,0.7507,0.7457,0.7389,0.7325,0.7289,0.7241,0.718,0.7092,0.7108,0.707,0.7061,0.7012,0.6924,0.7035,0.7033,0.7013,0.6806,0.6791,0.6774,0.6928,0.6925,0.6923,0.6809,0,0.7581,0.7462,0.745,0.7342,0.7283,0.7289,0.7228,0.7185,0.7163,0.7108,0.7082,0.7019,0.7046,0.7023,0.6975,0.6945,0.6881,0.6953,0.6868,0.6866,0.688,0.6754,0.6739,0.6634,0.6795,0.6792,0.679,0,0.7446,0.7395,0.7282,0.7231,0.7206,0.7153,0.7092,0.7041,0.6991,0.6977,0.6934,0.6931,0.6858,0.69,0.6796,0.6845,0.6809,0.6789,0.6785,0.6774,0.6822,0.6738,0.6601,0.6584,0.6767,0.6769,0.6771,0,0.737,0.7274,0.7193,0.7167,0.7107,0.7068,0.7041,0.6994,0.6956,0.6902,0.6876,0.6814,0.6779,0.6729,0.6708,0.6741,0.6604,0.6645,0.6589,0.6589,0.6558,0.656,0.6411,0.6539,0.654,0.654,0.654,0,0.7257,0.7186,0.7158,0.7108,0.7029,0.7015,0.6936,0.691,0.6868,0.681,0.6812,0.6757,0.6734,0.6676,0.6659,0.6574,0.6559,0.6544,0.6539,0.6542,0.6544,0.6517,0.6523,0.6536,0.6537,0.6537,0.6538,0,0.7158,0.7137,0.7048,0.6999,0.6985,0.6928,0.6884,0.6834,0.6813,0.674,0.6723,0.6688,0.6619,0.6594,0.6509,0.6498,0.6398,0.6401,0.6416,0.6414,0.6358,0.6362,0.6184,0.6159,0.6307,0.6305,0.6304,0,0.7086,0.7032,0.6977,0.694,0.6911,0.6852,0.6813,0.6796,0.6755,0.6694,0.665,0.6582,0.6527,0.6416,0.6381,0.6316,0.6316,0.6258,0.6306,0.6309,0.6311,0.6314,0.6307,0.6248,0.6247,0.6245,0.6244,0,0.6959,0.6951,0.6896,0.6836,0.679,0.6742,0.6696,0.6664,0.6641,0.6594,0.6524,0.6481,0.6396,0.6327,0.626,0.6229,0.6231,0.623,0.6213,0.6214,0.6223,0.6214,0.6389,0.6234,0.6235,0.6235,0.6236,0.6236,0.6869,0.6821,0.6775,0.6712,0.6676,0.6632,0.6582,0.6555,0.6498,0.6428,0.6421,0.6345,0.6294,0.6205,0.6171,0.6109,0.6125,0.6101,0.6094,0.6088,0.6082,0.6235,0.6097,0.6098,0.6098,0.6098,0.6098,0,0.674,0.6711,0.6654,0.6589,0.654,0.655,0.6498,0.6455,0.6389,0.6343,0.6288,0.6207,0.614,0.61,0.6032,0.599,0.5989,0.5973,0.5974,0.5966,0.6074,0.6094,0.5974,0.5974,0.5974,0.5974,0.5974,0.5974,0.6667,0.6586,0.6572,0.647,0.6441,0.6368,0.6337,0.6296,0.6258,0.6168,0.6113,0.6089,0.6044,0.5972,0.591,0.59,0.5873,0.5855,0.5845,0.5946,0.5959,0.5971,0.599,0.585,0.585,0.5742,0.5741,0.5741]}]]